QTR429 OTHH-ESSA

Flight info

Callsign QTR429
Flight time N/A
Altitude 36000
Route ULIKA M430 KSA T503 GADLI/N0473F380 T503 OVANO L768 FIRAS R655 KTN R785 NIKAS L619 VESAR UL619 OSVEL UQ23 OSDAN UQ26 TUDBU Q26 UPAMA DCT RUPUG/N0466F400 DCT ORA DCT NARKA DCT KEKED DCT RAZEC DCT LENOV N133 PENOR DCT TESPO DCT ARMOD/N0475F410 Z228 NILUG
Aircraft A343/H-SDE2E3FGHIJ4J5M1RWXY/LB1D1

Departure

Time N/A
Airport Hamad International Airport (OTHH)

Arrival

Time 2026-05-07 14:17
Airport Stockholm-Arlanda Airport (ESSA)
Time Latitude Longitude Altitude Speed Heading
2026-05-07 13:51 57.76229 17.44979 38525 ft 496 kts
2026-05-07 13:52 57.79607 17.46331 37874 ft 496 kts
2026-05-07 13:52 57.82932 17.47666 37296 ft 496 kts
2026-05-07 13:52 57.86303 17.49022 36728 ft 494 kts
2026-05-07 13:52 57.89661 17.50375 36162 ft 493 kts
2026-05-07 13:53 57.93013 17.51728 35589 ft 491 kts
2026-05-07 13:53 57.96352 17.53078 35032 ft 490 kts
2026-05-07 13:53 57.99680 17.54427 34477 ft 488 kts
2026-05-07 13:53 58.02990 17.55771 33886 ft 486 kts
2026-05-07 13:54 58.06298 17.57117 33196 ft 485 kts
2026-05-07 13:54 58.09598 17.58461 32478 ft 484 kts
2026-05-07 13:54 58.12887 17.59804 31767 ft 481 kts
2026-05-07 13:54 58.16153 17.61141 30835 ft 479 kts
2026-05-07 13:55 58.19409 17.62475 29772 ft 478 kts
2026-05-07 13:55 58.22663 17.63811 28587 ft 478 kts
2026-05-07 13:55 58.25890 17.65141 27814 ft 470 kts
2026-05-07 13:55 58.29058 17.66452 27222 ft 462 kts
2026-05-07 13:56 58.32184 17.67743 26646 ft 458 kts
2026-05-07 13:56 58.35244 17.69008 26098 ft 454 kts
2026-05-07 13:56 58.38306 17.70287 25839 ft 450 kts
2026-05-07 13:56 58.41376 17.71575 25587 ft 453 kts
2026-05-07 13:57 58.44450 17.72869 25337 ft 452 kts
2026-05-07 13:57 58.47515 17.74165 25080 ft 451 kts
2026-05-07 13:57 58.50573 17.75461 24845 ft 450 kts
2026-05-07 13:57 58.53627 17.76757 24600 ft 449 kts
2026-05-07 13:58 58.56674 17.78053 24375 ft 448 kts
2026-05-07 13:58 58.59713 17.79349 24136 ft 446 kts
2026-05-07 13:58 58.62736 17.80639 23903 ft 444 kts
2026-05-07 13:58 58.65767 17.81934 23684 ft 443 kts
2026-05-07 13:59 58.68739 17.83204 23412 ft 442 kts
2026-05-07 13:59 58.71746 17.84493 23130 ft 441 kts
2026-05-07 13:59 58.74734 17.85778 22852 ft 439 kts
2026-05-07 13:59 58.77711 17.87059 22577 ft 437 kts
2026-05-07 14:00 58.79110 17.87662 22443 ft 436 kts
2026-05-07 14:00 58.81820 17.88831 22199 ft 435 kts
2026-05-07 14:01 58.84766 17.90105 21929 ft 433 kts
2026-05-07 14:01 58.87696 17.91374 21663 ft 431 kts
2026-05-07 14:01 58.90620 17.92642 21368 ft 428 kts
2026-05-07 14:01 58.93507 17.93900 20903 ft 423 kts
2026-05-07 14:02 58.96371 17.95148 20316 ft 420 kts
2026-05-07 14:02 58.99211 17.96384 19729 ft 418 kts
2026-05-07 14:02 59.02036 17.97618 19166 ft 415 kts
2026-05-07 14:02 59.04843 17.98846 18593 ft 413 kts
2026-05-07 14:03 59.06623 17.99626 18191 ft 411 kts
2026-05-07 14:03 59.08707 18.00518 17763 ft 408 kts
2026-05-07 14:03 59.10668 18.01182 17469 ft 400 kts
2026-05-07 14:03 59.11288 18.01355 17319 ft 399 kts
2026-05-07 14:04 59.14007 18.02044 16644 ft 398 kts
2026-05-07 14:04 59.16749 18.02706 16049 ft 395 kts
2026-05-07 14:04 59.19468 18.03354 15487 ft 392 kts
2026-05-07 14:04 59.20751 18.03657 15249 ft 390 kts
2026-05-07 14:05 59.23432 18.04301 14702 ft 387 kts
2026-05-07 14:05 59.26094 18.04939 14169 ft 384 kts
2026-05-07 14:05 59.28741 18.05566 13619 ft 380 kts
2026-05-07 14:05 59.31357 18.06173 13048 ft 376 kts
2026-05-07 14:06 59.33941 18.06758 12513 ft 372 kts
2026-05-07 14:06 59.36502 18.07330 12104 ft 366 kts
2026-05-07 14:06 59.39012 18.07887 11718 ft 357 kts
2026-05-07 14:06 59.41410 18.08418 11333 ft 345 kts
2026-05-07 14:07 59.43764 18.08940 10958 ft 335 kts
2026-05-07 14:07 59.46032 18.09442 10579 ft 319 kts
2026-05-07 14:07 59.48181 18.09923 10211 ft 302 kts
2026-05-07 14:07 59.50233 18.10387 9832 ft 293 kts
2026-05-07 14:08 59.52245 18.10816 9413 ft 288 kts
2026-05-07 14:08 59.54231 18.11229 9005 ft 285 kts
2026-05-07 14:08 59.56189 18.11631 8566 ft 281 kts
2026-05-07 14:08 59.58105 18.12019 8105 ft 273 kts
2026-05-07 14:09 59.59998 18.12395 7665 ft 273 kts
2026-05-07 14:09 59.61868 18.12756 7265 ft 265 kts
2026-05-07 14:09 59.63642 18.13097 6896 ft 254 kts
2026-05-07 14:09 59.65367 18.13424 6538 ft 245 kts
2026-05-07 14:10 59.67056 18.13741 6149 ft 236 kts
2026-05-07 14:10 59.68672 18.14049 5775 ft 230 kts
2026-05-07 14:10 59.70257 18.14357 5404 ft 228 kts
2026-05-07 14:10 59.71836 18.14658 5048 ft 229 kts
2026-05-07 14:11 59.73413 18.14957 4676 ft 232 kts
2026-05-07 14:11 59.75041 18.15273 4295 ft 238 kts
2026-05-07 14:11 59.76712 18.15524 3915 ft 242 kts 357°
2026-05-07 14:11 59.78321 18.14723 3532 ft 238 kts 327°
2026-05-07 14:12 59.79442 18.12456 3300 ft 229 kts 297°
2026-05-07 14:12 59.80019 18.09604 3084 ft 223 kts 281°
2026-05-07 14:12 59.80134 18.06580 2938 ft 217 kts 269°
2026-05-07 14:12 59.79856 18.03712 2743 ft 211 kts 238°
2026-05-07 14:13 59.78842 18.01706 2584 ft 203 kts 212°
2026-05-07 14:13 59.77600 18.00494 2495 ft 195 kts 195°
2026-05-07 14:13 59.76322 18.00011 2490 ft 180 kts 188°
2026-05-07 14:13 59.75104 17.99622 2267 ft 176 kts 191°
2026-05-07 14:14 59.73906 17.99160 2008 ft 174 kts 191°
2026-05-07 14:14 59.72757 17.98747 1766 ft 161 kts 188°
2026-05-07 14:14 59.71692 17.98446 1547 ft 147 kts 185°
2026-05-07 14:14 59.70732 17.98103 1321 ft 136 kts 192°
2026-05-07 14:15 59.69850 17.97711 1160 ft 130 kts 190°
2026-05-07 14:15 59.68953 17.97398 961 ft 131 kts 187°
2026-05-07 14:15 59.68044 17.97063 774 ft 134 kts 189°
2026-05-07 14:15 59.67119 17.96711 595 ft 136 kts 189°
2026-05-07 14:16 59.66197 17.96374 425 ft 134 kts 189°
2026-05-07 14:16 59.65287 17.96049 248 ft 133 kts 188°
2026-05-07 14:16 59.64396 17.95718 113 ft 122 kts 185°
2026-05-07 14:16 59.63736 17.95482 117 ft 70 kts 190°
2026-05-07 14:17 59.63345 17.95336 123 ft 47 kts 190°
2026-05-07 14:17 59.63109 17.95237 136 ft 25 kts 198°
2026-05-07 14:17 59.62969 17.95092 140 ft 22 kts 215°
2026-05-07 14:17 59.62856 17.94902 141 ft 20 kts 237°
2026-05-07 14:18 59.62890 17.94776 141 ft 10 kts 347°
2026-05-07 14:18 59.62971 17.94787 139 ft 13 kts 10°
2026-05-07 14:18 59.63076 17.94823 135 ft 18 kts
2026-05-07 14:18 59.63209 17.94868 125 ft 21 kts
2026-05-07 14:19 59.63365 17.94930 122 ft 24 kts 11°
2026-05-07 14:19 59.63544 17.94995 118 ft 28 kts 10°
2026-05-07 14:19 59.63744 17.95066 113 ft 30 kts 10°
2026-05-07 14:19 59.63956 17.95145 112 ft 31 kts 10°
2026-05-07 14:20 59.63967 17.95149 109 ft 32 kts 10°
2026-05-07 14:20 59.64158 17.95216 110 ft 32 kts
2026-05-07 14:20 59.64379 17.95297 110 ft 33 kts 11°
2026-05-07 14:21 59.64607 17.95380 109 ft 34 kts 10°
2026-05-07 14:21 59.64834 17.95463 110 ft 33 kts 10°
2026-05-07 14:21 59.65051 17.95508 118 ft 30 kts 352°
2026-05-07 14:21 59.65240 17.95412 124 ft 27 kts 346°
2026-05-07 14:22 59.65412 17.95323 128 ft 25 kts 345°
2026-05-07 14:22 59.65582 17.95231 131 ft 26 kts 344°
2026-05-07 14:22 59.65724 17.95144 126 ft 14 kts 326°
2026-05-07 14:22 59.65740 17.94943 129 ft 17 kts 256°
2026-05-07 14:23 59.65710 17.94711 125 ft 18 kts 255°
2026-05-07 14:23 59.65689 17.94553 124 ft 18 kts 255°
2026-05-07 14:23 59.65657 17.94311 126 ft 19 kts 255°
2026-05-07 14:23 59.65623 17.94045 122 ft 22 kts 256°
2026-05-07 14:24 59.65568 17.93608 115 ft 26 kts 256°
2026-05-07 14:24 59.65537 17.93373 114 ft 12 kts 241°
2026-05-07 14:24 59.65494 17.93340 114 ft 10 kts 186°
2026-05-07 14:24 59.65418 17.93363 114 ft 10 kts 166°
2026-05-07 14:25 59.65385 17.93417 115 ft 4 kts 99°
2026-05-07 14:25 59.65392 17.93480 112 ft 4 kts 77°
2026-05-07 14:25 59.65394 17.93494 113 ft 0 kts 76°